Time,TemperatureF,DewpointF,PressureIn,WindDirection,WindDirectionDegrees,WindSpeedMPH,WindSpeedGustMPH,Humidity,HourlyPrecipIn,Conditions,Clouds,dailyrainin,SoftwareType,DateUTC
2013-03-17 00:00:00,23.0,-99.9,-100.00,North,-999,-999.0,-999.0,-999,-99.99,,,-99.99,,2013-03-17 07:00:00,
2013-03-17 00:52:00,23.0,-99.9,-100.00,North,-999,-999.0,-999.0,-999,-99.99,,,-99.99,,2013-03-17 07:52:00,
2013-03-17 01:00:00,23.0,-99.9,-100.00,SE,124,2.0,6.0,-999,-99.99,,,0.01,,2013-03-17 08:00:00,
2013-03-17 02:00:00,23.0,-99.9,-100.00,West,278,3.0,9.0,-999,-99.99,,,0.01,,2013-03-17 09:00:00,
2013-03-17 03:00:00,23.0,-99.9,-100.00,NE,54,4.0,9.0,-999,-99.99,,,0.01,,2013-03-17 10:00:00,
2013-03-17 04:00:00,23.0,-99.9,-100.00,South,173,2.0,7.0,-999,-99.99,,,0.01,,2013-03-17 11:00:00,
2013-03-17 05:00:00,23.0,-99.9,-100.00,South,191,1.0,7.0,-999,-99.99,,,0.01,,2013-03-17 12:00:00,
2013-03-17 06:00:00,23.0,-99.9,-100.00,SSW,199,1.0,5.0,-999,-99.99,,,0.01,,2013-03-17 13:00:00,
2013-03-17 07:00:00,22.0,-99.9,-100.00,NE,49,1.0,5.0,-999,-99.99,,,0.00,,2013-03-17 14:00:00,
2013-03-17 08:00:00,22.0,-99.9,-100.00,NE,40,0.0,1.0,-999,-99.99,,,0.01,,2013-03-17 15:00:00,
2013-03-17 09:00:00,22.0,-99.9,-100.00,East,97,0.0,3.0,-999,-99.99,,,0.01,,2013-03-17 16:00:00,
2013-03-17 10:00:00,24.0,-99.9,-100.00,East,83,0.0,4.0,-999,-99.99,,,0.01,,2013-03-17 17:00:00,
2013-03-17 11:00:00,24.0,-99.9,-100.00,ENE,69,0.0,4.0,-999,-99.99,,,0.01,,2013-03-17 18:00:00,
2013-03-17 12:00:00,25.0,-99.9,-100.00,North,351,0.0,4.0,-999,-99.99,,,0.01,,2013-03-17 19:00:00,
2013-03-17 13:00:00,25.0,-99.9,-100.00,NE,45,0.0,2.0,-999,-99.99,,,0.01,,2013-03-17 20:00:00,
2013-03-17 14:00:00,26.0,-99.9,-100.00,SSE,153,0.0,1.0,-999,-99.99,,,0.00,,2013-03-17 21:00:00,
2013-03-17 15:00:00,25.0,-99.9,-100.00,NE,38,1.0,5.0,-999,-99.99,,,0.01,,2013-03-17 22:00:00,
2013-03-17 16:00:00,27.0,-99.9,-100.00,South,181,0.0,1.0,-999,-99.99,,,0.01,,2013-03-17 23:00:00,
2013-03-17 17:00:00,25.0,-99.9,-100.00,South,173,0.0,1.0,-999,-99.99,,,0.00,,2013-03-18 00:00:00,
2013-03-17 18:00:00,24.0,-99.9,-100.00,South,175,0.0,1.0,-999,-99.99,,,0.01,,2013-03-18 01:00:00,
2013-03-17 19:00:00,23.0,-99.9,-100.00,SE,137,0.0,2.0,-999,-99.99,,,0.01,,2013-03-18 02:00:00,
2013-03-17 20:00:00,23.0,-99.9,-100.00,SE,141,0.0,1.0,-999,-99.99,,,0.01,,2013-03-18 03:00:00,
2013-03-17 21:00:00,22.0,-99.9,-100.00,SSE,164,0.0,2.0,-999,-99.99,,,0.00,,2013-03-18 04:00:00,
2013-03-17 22:00:00,22.0,-99.9,-100.00,ESE,108,0.0,2.0,-999,-99.99,,,0.01,,2013-03-18 05:00:00,
2013-03-17 23:00:00,23.0,-99.9,-100.00,SW,227,0.0,2.0,-999,-99.99,,,0.01,,2013-03-18 06:00:00,